CW6261 Weather Reports


Display with metric or nautical units.
time (UTC)temp
F
wind
direction
speed
MPH
gust
MPH
rain 1hr
in
rain 24hr
in
rain mn
in
humidity
%
barometer
mb
20220123064704 38 260 0.0 0.0 0.00 0.00 0.00 57 1027.9
20220123064204 38 260 0.0 0.0 0.00 0.00 0.00 57 1027.9
20220123063704 38 250 0.0 0.0 0.00 0.00 0.00 59 1028.0
20220123063204 38 250 0.0 0.0 0.00 0.00 0.00 59 1028.0
20220123062204 37 240 0.0 0.0 0.00 0.00 0.00 60 1028.1
20220123061204 37 230 0.0 0.0 0.00 0.00 0.00 61 1028.1
20220123060204 37 300 0.0 0.0 0.00 0.00 0.00 60 1028.2
20220123055204 36 240 0.0 0.0 0.00 0.00 0.00 58 1028.2
20220123054204 36 200 0.0 0.0 0.00 0.00 0.00 59 1028.2
20220123053205 36 200 0.0 0.0 0.00 0.00 0.00 59 1028.3
20220123052204 35 260 0.0 0.0 0.00 0.00 0.00 59 1028.3
20220123051204 35 240 0.0 0.0 0.00 0.00 0.00 60 1028.4
20220123050204 35 90 1.0 0.0 0.00 0.00 0.00 59 1028.5
20220123045204 35 40 1.0 0.0 0.00 0.00 0.00 59 1028.7
20220123044203 35 0 1.0 0.0 0.00 0.00 0.00 58 1028.8
20220123043203 35 30 1.0 0.0 0.00 0.00 0.00 58 1028.8
20220123042709 35 30 1.0 0.0 0.00 0.00 0.00 58 1028.8
20220123042204 35 130 0.0 0.0 0.00 0.00 0.00 57 1028.8
20220123041705 35 130 0.0 0.0 0.00 0.00 0.00 57 1028.8
20220123041206 36 120 1.0 0.0 0.00 0.00 0.00 57 1028.9
20220123040210 36 260 1.0 0.0 0.00 0.00 0.00 54 1028.9
20220123035706 36 260 1.0 0.0 0.00 0.00 0.00 54 1028.9
20220123035206 36 250 1.0 0.0 0.00 0.00 0.00 53 1029.0
20220123034705 36 250 1.0 0.0 0.00 0.00 0.00 53 1029.0
20220123034209 36 250 1.0 0.0 0.00 0.00 0.00 51 1029.0
20220123033707 36 250 1.0 0.0 0.00 0.00 0.00 51 1029.0
20220123033207 37 250 1.0 0.0 0.00 0.00 0.00 50 1029.0
20220123032707 37 250 1.0 0.0 0.00 0.00 0.00 50 1029.0
20220123032206 37 250 1.0 0.0 0.00 0.00 0.00 50 1029.0
20220123031704 37 250 1.0 0.0 0.00 0.00 0.00 50 1029.0
20220123031205 37 250 1.0 0.0 0.00 0.00 0.00 50 1029.0
20220123030704 37 250 1.0 0.0 0.00 0.00 0.00 50 1029.0
20220123030207 38 250 0.0 0.0 0.00 0.00 0.00 49 1029.2
20220123025705 38 250 0.0 0.0 0.00 0.00 0.00 49 1029.2
20220123024705 38 250 0.0 0.0 0.00 0.00 0.00 49 1029.2
20220123023704 38 250 0.0 0.0 0.00 0.00 0.00 48 1029.2
20220123022704 38 260 0.0 0.0 0.00 0.00 0.00 48 1029.2
20220123020704 39 270 0.0 0.0 0.00 0.00 0.00 47 1029.1
20220123015703 40 250 0.0 0.0 0.00 0.00 0.00 44 1029.1
20220123014704 40 260 1.0 0.0 0.00 0.00 0.00 43 1029.0
20220123013704 41 10 2.0 0.0 0.00 0.00 0.00 42 1028.9
20220123012704 42 10 2.0 0.0 0.00 0.00 0.00 40 1028.8
20220123011705 43 20 2.0 0.0 0.00 0.00 0.00 39 1028.8
20220123010703 44 20 2.0 0.0 0.00 0.00 0.00 38 1028.7
20220123010204 44 20 2.0 0.0 0.00 0.00 0.00 38 1028.7
20220123005703 44 30 3.0 0.0 0.00 0.00 0.00 35 1028.7
20220123005205 44 30 3.0 0.0 0.00 0.00 0.00 35 1028.7
20220123004703 46 30 3.0 0.0 0.00 0.00 0.00 33 1028.6
20220123004205 46 30 3.0 0.0 0.00 0.00 0.00 33 1028.6
20220123003704 47 30 3.0 0.0 0.00 0.00 0.00 32 1028.6
20220123003204 47 30 3.0 0.0 0.00 0.00 0.00 32 1028.6
20220123002704 47 30 3.0 0.0 0.00 0.00 0.00 31 1028.5
20220123001703 48 30 3.0 0.0 0.00 0.00 0.00 31 1028.4
20220123001204 48 30 3.0 0.0 0.00 0.00 0.00 31 1028.4
20220123000204 48 40 3.0 0.0 0.00 0.00 0.00 30 1028.3
20220122235204 49 50 4.0 0.0 0.00 0.00 0.00 30 1028.5
20220122233204 50 40 5.0 0.0 0.00 0.00 0.00 29 1028.4
20220122232203 51 50 5.0 0.0 0.00 0.00 0.00 27 1028.5
20220122231203 52 50 6.0 0.0 0.00 0.00 0.00 27 1028.5
20220122230203 53 50 5.0 0.0 0.00 0.00 0.00 25 1028.5
20220122225704 53 50 5.0 0.0 0.00 0.00 0.00 25 1028.5
20220122225203 53 50 5.0 0.0 0.00 0.00 0.00 25 1028.5
20220122224704 53 50 5.0 0.0 0.00 0.00 0.00 25 1028.5
20220122224204 53 70 3.0 0.0 0.00 0.00 0.00 25 1028.5
20220122223704 53 70 3.0 0.0 0.00 0.00 0.00 25 1028.5
20220122223203 53 60 3.0 0.0 0.00 0.00 0.00 25 1028.6
20220122222704 53 60 3.0 0.0 0.00 0.00 0.00 25 1028.6
20220122222204 53 60 5.0 0.0 0.00 0.00 0.00 25 1028.6
20220122221703 53 60 5.0 0.0 0.00 0.00 0.00 25 1028.6
20220122221203 53 60 5.0 0.0 0.00 0.00 0.00 24 1028.6
20220122220704 53 60 5.0 0.0 0.00 0.00 0.00 24 1028.6
20220122220204 54 30 5.0 0.0 0.00 0.00 0.00 24 1028.6
20220122215704 54 30 5.0 0.0 0.00 0.00 0.00 24 1028.6
20220122214705 54 20 5.0 0.0 0.00 0.00 0.00 24 1028.6
20220122213704 53 40 6.0 0.0 0.00 0.00 0.00 24 1028.7
20220122212703 54 40 6.0 0.0 0.00 0.00 0.00 24 1028.8
20220122211705 53 30 6.0 0.0 0.00 0.00 0.00 24 1028.9
20220122210704 53 30 7.0 0.0 0.00 0.00 0.00 23 1029.0
20220122205704 53 50 5.0 0.0 0.00 0.00 0.00 23 1029.0
20220122204703 53 50 5.0 0.0 0.00 0.00 0.00 23 1029.2
20220122203703 53 50 5.0 0.0 0.00 0.00 0.00 24 1029.3
20220122203212 53 50 5.0 0.0 0.00 0.00 0.00 24 1029.3
20220122202704 53 50 5.0 0.0 0.00 0.00 0.00 23 1029.5
20220122202204 53 50 5.0 0.0 0.00 0.00 0.00 23 1029.5
20220122201703 52 60 4.0 0.0 0.00 0.00 0.00 24 1029.6
20220122201204 52 60 4.0 0.0 0.00 0.00 0.00 24 1029.6
20220122200703 53 60 4.0 0.0 0.00 0.00 0.00 23 1029.8
20220122195704 52 40 7.0 0.0 0.00 0.00 0.00 24 1030.0
20220122194703 52 40 7.0 0.0 0.00 0.00 0.00 24 1030.2
20220122194204 52 40 7.0 0.0 0.00 0.00 0.00 24 1030.2
20220122193704 52 40 7.0 0.0 0.00 0.00 0.00 23 1030.4
20220122193203 52 40 7.0 0.0 0.00 0.00 0.00 23 1030.4
20220122192703 51 40 7.0 0.0 0.00 0.00 0.00 23 1030.6
20220122192204 51 40 7.0 0.0 0.00 0.00 0.00 23 1030.6
20220122191704 51 40 7.0 0.0 0.00 0.00 0.00 24 1030.9
20220122190703 51 30 7.0 0.0 0.00 0.00 0.00 24 1031.2
20220122190205 51 30 7.0 0.0 0.00 0.00 0.00 24 1031.2
20220122185205 50 30 8.0 0.0 0.00 0.00 0.00 24 1031.6
20220122184205 50 30 9.0 0.0 0.00 0.00 0.00 24 1031.9
20220122183204 50 30 9.0 0.0 0.00 0.00 0.00 25 1032.1
20220122182204 49 40 8.0 0.0 0.00 0.00 0.00 25 1032.4
20220122181204 49 40 8.0 0.0 0.00 0.00 0.00 25 1032.6
20220122180204 48 50 8.0 0.0 0.00 0.00 0.00 26 1032.8
20220122174203 47 50 7.0 0.0 0.00 0.00 0.00 28 1033.2
20220122173704 47 50 7.0 0.0 0.00 0.00 0.00 28 1033.2
20220122171705 45 50 7.0 0.0 0.00 0.00 0.00 30 1033.5
20220122165704 43 60 7.0 0.0 0.00 0.00 0.00 32 1033.6
20220122164704 43 60 7.0 0.0 0.00 0.00 0.00 33 1033.7
20220122163704 43 70 7.0 0.0 0.00 0.00 0.00 33 1033.6
20220122162703 43 70 7.0 0.0 0.00 0.00 0.00 34 1033.6
20220122162204 43 70 7.0 0.0 0.00 0.00 0.00 34 1033.6
20220122161705 42 60 6.0 0.0 0.00 0.00 0.00 35 1033.7
20220122160704 41 60 6.0 0.0 0.00 0.00 0.00 37 1033.8
20220122155705 39 50 6.0 0.0 0.00 0.00 0.00 40 1033.7
20220122155204 39 50 6.0 0.0 0.00 0.00 0.00 40 1033.7
20220122154703 38 40 5.0 0.0 0.00 0.00 0.00 41 1033.7
20220122154204 38 40 5.0 0.0 0.00 0.00 0.00 41 1033.7
20220122153705 37 40 5.0 0.0 0.00 0.00 0.00 44 1033.6
20220122153205 37 40 5.0 0.0 0.00 0.00 0.00 44 1033.6
20220122150703 32 20 5.0 0.0 0.00 0.00 0.00 52 1033.4
20220122150203 32 20 5.0 0.0 0.00 0.00 0.00 52 1033.4
20220122145204 31 20 4.0 0.0 0.00 0.00 0.00 55 1033.3
20220122144204 30 10 4.0 0.0 0.00 0.00 0.00 58 1033.2
20220122143204 28 0 3.0 0.0 0.00 0.00 0.00 62 1033.1
20220122142204 27 350 3.0 0.0 0.00 0.00 0.00 64 1032.9
20220122141204 26 350 3.0 0.0 0.00 0.00 0.00 66 1032.9
20220122140204 25 350 3.0 0.0 0.00 0.00 0.00 68 1032.8
20220122135204 26 350 3.0 0.0 0.00 0.00 0.00 65 1032.6
20220122133204 26 350 3.0 0.0 0.00 0.00 0.00 65 1032.4
20220122132706 26 350 3.0 0.0 0.00 0.00 0.00 65 1032.4
20220122132206 26 0 3.0 0.0 0.00 0.00 0.00 66 1032.2
20220122131707 26 0 3.0 0.0 0.00 0.00 0.00 66 1032.2
20220122130709 26 0 3.0 0.0 0.00 0.00 0.00 66 1032.0
20220122125706 26 10 3.0 0.0 0.00 0.00 0.00 66 1031.8
20220122124711 26 10 3.0 0.0 0.00 0.00 0.00 65 1031.6
20220122123704 26 10 2.0 0.0 0.00 0.00 0.00 65 1031.5
20220122122705 26 10 2.0 0.0 0.00 0.00 0.00 65 1031.3
20220122121707 26 10 2.0 0.0 0.00 0.00 0.00 65 1031.2
20220122120704 26 10 2.0 0.0 0.00 0.00 0.00 63 1031.1
20220122115704 27 10 4.0 0.0 0.00 0.00 0.00 63 1030.9
20220122114705 27 0 4.0 0.0 0.00 0.00 0.00 63 1030.8
20220122113704 27 10 4.0 0.0 0.00 0.00 0.00 63 1030.7
20220122113204 27 10 4.0 0.0 0.00 0.00 0.00 63 1030.7
20220122111704 27 10 4.0 0.0 0.00 0.00 0.00 63 1030.5
20220122111204 27 10 4.0 0.0 0.00 0.00 0.00 63 1030.5
20220122110704 27 0 4.0 0.0 0.00 0.00 0.00 63 1030.4
20220122110204 27 0 4.0 0.0 0.00 0.00 0.00 63 1030.4
20220122105703 27 0 4.0 0.0 0.00 0.00 0.00 65 1030.6
20220122105204 27 0 4.0 0.0 0.00 0.00 0.00 65 1030.6
20220122104204 27 0 4.0 0.0 0.00 0.00 0.00 65 1030.5
20220122103204 27 0 4.0 0.0 0.00 0.00 0.00 65 1030.5
20220122102203 27 0 4.0 0.0 0.00 0.00 0.00 65 1030.4
20220122101204 27 0 4.0 0.0 0.00 0.00 0.00 65 1030.3
20220122100203 27 10 4.0 0.0 0.00 0.00 0.00 65 1030.1
20220122095704 27 10 4.0 0.0 0.00 0.00 0.00 65 1030.1
20220122095204 27 10 4.0 0.0 0.00 0.00 0.00 64 1030.0
20220122094204 27 10 3.0 0.0 0.00 0.00 0.00 63 1030.0
20220122093204 27 10 3.0 0.0 0.00 0.00 0.00 64 1029.9
20220122092203 27 10 3.0 0.0 0.00 0.00 0.00 64 1029.9
20220122091203 27 10 3.0 0.0 0.00 0.00 0.00 64 1029.9
20220122085203 27 0 3.0 0.0 0.00 0.00 0.00 65 1029.8
20220122084204 28 10 3.0 0.0 0.00 0.00 0.00 62 1029.7
20220122083703 28 10 3.0 0.0 0.00 0.00 0.00 62 1029.7
20220122081704 28 0 3.0 0.0 0.00 0.00 0.00 62 1029.7
20220122080704 28 0 3.0 0.0 0.00 0.00 0.00 62 1029.7
20220122075704 28 330 2.0 0.0 0.00 0.00 0.00 62 1029.5
20220122074704 29 330 2.0 0.0 0.00 0.00 0.00 61 1029.4
20220122073704 29 320 2.0 0.0 0.00 0.00 0.00 59 1029.3
20220122072703 29 320 2.0 0.0 0.00 0.00 0.00 59 1029.2
20220122072204 29 320 2.0 0.0 0.00 0.00 0.00 59 1029.2
20220122071704 29 310 2.0 0.0 0.00 0.00 0.00 60 1029.2
20220122070703 29 320 2.0 0.0 0.00 0.00 0.00 59 1029.2
20220122070204 29 320 2.0 0.0 0.00 0.00 0.00 59 1029.2
20220122065703 29 350 3.0 0.0 0.00 0.00 0.00 59 1029.5
20220122065203 29 350 3.0 0.0 0.00 0.00 0.00 59 1029.5